Other Public Products
Issued by NWS Grand Forks, ND

Home | Current Version | Previous Version | Graphics & Text | Print | Product List | Glossary On
Versions: 1 2 3 4 5 6 7 8 9 10 11 12 13 14 15 16 17 18 19 20 21 22 23 24 25 26 27 28 29 30 31 32 33 34 35 36 37 38 39 40 41 42 43 44 45 46 47 48 49 50
972
FPUS83 KFGF 112131
OPUFGF
PRAIRIE TO PINES WEATHER ROUNDUP
NATIONAL WEATHER SERVICE EASTERN NORTH DAKOTA/GRAND FORKS ND
300 PM CST THU FEB 11 2016

 **SATELLITE DATA USED TO AUGMENT SKY COVER AT AUTOMATED STATIONS**
 *****  WEATHER ACROSS EASTERN NORTH DAKOTA  *****

CITY           SKY/WX    TMP DP  RH WIND       PRES   REMARKS
GRAND FORKS    CLOUDY    15   7  70 W7        30.22S WCI   5
GRAND FORKS AF CLOUDY    16   7  67 NW5       30.22R WCI   9
GRAND CITY NWS NOT AVBL
BUXTON           N/A     -3   6 100 W5          N/A  WCI -13
DEVILS LAKE    FLURRIES  12   6  77 N8        30.19R WCI   0
FARGO          CLOUDY    15   1  53 NW3       30.21S
WAHPETON ARPT  CLOUDY    14   9  79 SW3       30.20S
$$

 *****  WEATHER ACROSS CENTRAL AND WESTERN NORTH DAKOTA  *****

CITY           SKY/WX    TMP DP  RH WIND       PRES   REMARKS
JAMESTOWN      CLOUDY    16  10  77 N6        30.15S WCI   7
BISMARCK       LGT SNOW  27  18  69 NE6       30.14S WCI  20
MINOT          CLOUDY    21  11  65 NW7       30.19R WCI  12
MINOT AFB      CLOUDY    21  14  73 NW2       30.19R
GARRISON         N/A     20  13  74 N5        30.15R WCI  13
WILLISTON      CLOUDY    25  18  74 N7        30.19R WCI  17
DICKINSON      LGT SNOW  24  19  81 NE7       30.07S WCI  16
HETTINGER      CLOUDY    28  24  85 N8        30.08R WCI  20
$$

 *****  OTHER OBSERVATIONS NORTHEAST NORTH DAKOTA  *****

CITY           SKY/WX    TMP DP  RH WIND       PRES   REMARKS
WALHALLA       FAIR      12   7  79 N9        30.24R WCI   0
LANGDON        MOCLDY    12   7  79 NW9       30.17S WCI   0
CAVALIER       LGT SNOW  14   9  79 N13       30.24R WCI   0
GRAFTON        FLURRIES  14   9  79 N8        30.25R WCI   3
CANDO          CLOUDY    14   7  73 N7        30.21S WCI   4
FORT TOTTEN      N/A     14   7  75 N6        29.95S WCI   5
ROLLA          CLOUDY    10   7  85 N13       30.17S WCI  -5
RUGBY          FAIR      14   9  79 NW5       30.19R WCI   6
 ***** THE ABOVE OBSERVATIONS ARE NON NWS ARE NOT QUALITY
        CONTROLLED AND MAY MIS-REPORT RAIN FOR SNOW...
$$

 *****  OTHER OBSERVATIONS SOUTHEAST NORTH DAKOTA *****

CITY           SKY/WX    TMP DP  RH WIND       PRES   REMARKS
COOPERSTOWN    NOT AVBL
VALLEY CITY    FLURRIES  14  10  85 NW7       30.18S WCI   4
OAKES          CLOUDY    18  14  86 NW5       30.16S WCI  11
GWINNER        CLOUDY    19  12  73 CALM      30.17S
SHEYENNE NWR     N/A     17   9  71 CALM      29.95S
BUFFALO          N/A     13   1  58 CALM        N/A
WYNDMERE         N/A     16   9  73 S3          N/A
 ***** THE ABOVE OBSERVATIONS ARE NON NWS ARE NOT QUALITY
       CONTROLLED AND MAY MIS-REPORT RAIN FOR SNOW...
$$

  *****  WEATHER ACROSS NORTHERN MINNESOTA  *****

CITY           SKY/WX    TMP DP  RH WIND       PRES   REMARKS
FLAG ISLAND    CLOUDY     9   0  66 CALM      30.14S
WARROAD        CLOUDY    10   3  72 W10       30.16S WCI  -3
ROSEAU         CLOUDY    12   5  73 W12       30.18S WCI  -2
HALLOCK        PTSUNNY   12   7  79 NW8       30.22S WCI   1
THF RVR FALLS  CLOUDY    10   1  67 W9        30.20R WCI  -2
HALSTAD          N/A     13  10  87 W3          N/A
FOSSTON        CLOUDY    10  -2  56 W6        30.19R WCI   1
BAUDETTE       CLOUDY    12  -1  56 NW13      30.13F WCI  -3
WASKISH        CLOUDY    10   1  67 SW8       30.16S WCI  -1
CROOKSTON      CLOUDY    12   7  79 W6        30.23S WCI   3
$$
  *****  WEATHER ACROSS CENTRAL AND WEST MINNESOTA  *****

CITY           SKY/WX    TMP DP  RH WIND       PRES   REMARKS
BEMIDJI        CLOUDY    11  -4  51 W9        30.15R WCI  -1
PARK RAPIDS    CLOUDY    14  -2  49 W7        30.15F WCI   4
WADENA         FLURRIES  14   3  62 SW7       30.16S WCI   4
DETROIT LAKES  CLOUDY    16   3  57 W6        30.18R WCI   7
MOORHEAD       CLOUDY    12   3  67 CALM      30.22S
FERGUS FALLS   CLOUDY    14   7  73 CALM      30.22S
ELBOW LAKE     CLOUDY    13   7  76 SW8       30.19R HAZE    WCI   2
MORRIS MN      CLOUDY    14   7  73 S8        30.17F WCI   3
STAPLES        CLOUDY    12   1  62 SW5       30.17S WCI   4
WHEATON        CLOUDY    16  10  79 S6        30.21R WCI   7
$$
  *****  WEATHER ELSEWHERE ACROSS MINNESOTA  *****

CITY           SKY/WX    TMP DP  RH WIND       PRES   REMARKS
DULUTH         PTSUNNY   12  -5  46 W12       30.12F WCI  -2
INTRNTL FALLS  PTSUNNY   12  -6  44 W9        30.12F WCI   0
ELY            PTSUNNY    9  -4  56 W9        30.09S WCI  -5
CLOQUET        CLOUDY    14  -9  34 W10       30.13F WCI   1
BRAINERD       CLOUDY    12  -1  56 SW8       30.18F WCI   0
HIBBING        CLOUDY    10  -8  44 W10       30.12F WCI  -4
ALEXANDRIA     CLOUDY    13   6  74 SW8       30.17F WCI   2
SAINT CLOUD    CLOUDY    14   1  56 SW8       30.21F WCI   3
MINNEAPOLIS    CLOUDY    17  -3  41 SW7       30.23F WCI   8
$$

  *****  WEATHER ACROSS SOUTH DAKOTA  *****

CITY           SKY/WX    TMP DP  RH WIND       PRES   REMARKS
SIOUX FALLS    LGT SNOW  18  13  80 S7        30.14F WCI   9
BROOKINGS      LGT SNOW  17  12  80 S8        30.12F WCI   7
WATERTOWN      LGT SNOW  19  14  81 S6        30.11S WCI  11
HURON          LGT SNOW  23  19  85 SE6       30.12F FOG     WCI  16
SISSETON         N/A     17  12  80 S7        30.16F WCI   8
ABERDEEN       LGT SNOW  23  17  78 NE3       30.15S
MITCHELL       LGT SNOW  22  19  89 SE7       30.12S FOG     WCI  13
PIERRE         CLOUDY    29  25  85 E8        30.07R FOG     WCI  21
MOBRIDGE       LGT SNOW  29  25  85 CALM      30.07R FOG
RAPID CITY     SUNNY     58  27  30 NW35G52   29.99S
$$

  *****  SOME WEATHER IN NEARBY STATES *****

CITY           SKY/WX    TMP DP  RH WIND       PRES   REMARKS
GLASGOW MT     CLOUDY    32  24  72 CALM      30.18S
GREAT FALLS MT SUNNY     58  15  18 NW10G18   30.18S
CHEYENNE WY    CLOUDY    54  23  30 NW20G39   30.11F
SCOTTSBLUFF NE CLOUDY    59  28  30 MISG      30.09S
OMAHA NE       FLURRIES  24  17  74 SE6       30.19F WCI  17
DES MOINES IA  CLOUDY    20   4  50 S7        30.25F WCI  11
DAVENPORT IA   SUNNY     23   2  40 CALM      30.30F
CHICAGO IL     MOSUNNY   21   2  43 W7        30.27F WCI  12
EAU CLAIRE WI  PTSUNNY   14  -4  44 W7        30.23F WCI   4
LA CROSSE WI   MOSUNNY   19  -2  39 SW8       30.26F WCI   9
$$

  *****  SOME NATIONAL WEATHER *****

CITY           SKY/WX    TMP DP  RH WIND       PRES   REMARKS
LA GUARDIA NY  PTSUNNY   26   3  37 W25G39    29.95R WCI  11
RALEIGH NC     FAIR      41   7  24 VRB7      30.16S
ATLANTA GA     SUNNY     55  22  27 CALM      30.12S
NEW ORLEANS LA MOSUNNY   76  51  41 W18G25    30.13F
OKLAHOMA CITY  PTSUNNY   62  31  31 NE7       30.13S
ALBUQUERQUE NM MOSUNNY   63  16  16 CALM      30.28F
SALT LAKE CITY CLOUDY    32  27  81 CALM      30.45F HAZE
LOS ANGELES CA FAIR      76  40  27 W10       30.07F
BOISE ID       FAIR      45  33  63 CALM      30.36F
SEATTLE WA     CLOUDY    53  46  77 N8        30.12F
$$

*** WEATHER ACROSS MANITOBA...SASKATCHEWAN AND ONTARIO ***
                ***ONTARIO***

CITY           SKY/WX    TMP DP  RH WIND       PRES   REMARKS
GERALDTON      PTSUNNY    5  -6  61 W13G18    29.92F WCI -12
THUNDER BAY    PTSUNNY   14   1  57 W14       30.07F WCI  -1
SIOUX LOOKOUT  FLURRIES   9   0  66 W15G21    30.01S WCI  -8
TORONTO        MOSUNNY   12  -4  48 NW20G25   30.11R WCI  -6
BIG TROUT LK   CLOUDY   -15 -26  58 NW12G20   29.99  WCI -36
PICKLE LAKE    CRYSTALS   3  -8  60 W16G25    29.90S WCI -16
DRYDEN         LGT SNOW   9   1  72 W17       30.03F WCI -10
KENORA         CLOUDY    10   1  67 W9G17     30.09F WCI  -2
$$
                *** MANITOBA***

CITY           SKY/WX    TMP DP  RH WIND       PRES   REMARKS
BRANDON        FLURRIES  10   5  79 W6        30.22S WCI   1
DAUPHIN        SUNNY      7   0  72 W6        30.27F WCI  -3
ISLAND LAKE    FLURRIES -11 -17  77 W12       30.13R WCI -31
PILOT MOUND      N/A      9   3  78 N8          N/A  WCI  -4
THE PAS        SUNNY      1  -9  60 NW17      30.31  WCI -19
THOMPSON       PTSUNNY  -13 -24  58 NW17      30.26R WCI -38
WINNIPEG       PTSUNNY    9   1  72 NW13      30.23F WCI  -7
LYNN LAKE      FLURRIES -13 -22  64 NW16      30.32R WCI -37
CHURCHILL      CRYSTALS -26 -33  68 NW23G31   30.24R VSB 3/4 WCI -57
GILLAM         MOSUNNY  -17 -27  58 NW15      30.19R WCI -41
$$
                ***SASKATCHEWAN***

CITY           SKY/WX    TMP DP  RH WIND       PRES   REMARKS
ESTEVAN        CLOUDY    23  14  68 NW6       30.19S WCI  16
KINDERSLEY     CLOUDY    19  14  79 SE7       30.23R WCI  10
LLOYDMINSTER   LGT SNOW  14  10  85 E9        30.26R WCI   2
PRINCE ALBERT  CLOUDY    10   0  61 N3        30.33F
REGINA         CLOUDY    19  10  68 N14       30.22F WCI   6
YORKTON        FLURRIES   7   1  78 NW12      30.26R WCC1F1C2F2C3F3C4F4C5F5C6F6C7F7C8F8C9F9CaFaCbFbCcFcCdFdCe!



USA.gov is the U.S. government's official web portal to all federal, state and local government web resources and services.